Hourly Weather Roundup
Issued by NWS Central Illinois

Home | Current Version | Previous Version | Text Only | Print | Product List | Glossary On
Versions: 1 2 3 4 5 6 7 8 9 10 11 12 13 14 15 16 17 18 19 20 21 22 23 24 25 26 27 28 29 30 31 32 33 34 35 36 37 38 39 40 41 42 43 44 45 46 47 48 49 50
000
NZUS43 KILX 301810
HWRILX

AREA WEATHER ROUNDUP
NATIONAL WEATHER SERVICE, LINCOLN IL
100 PM CDT MON MAY 30 2016


CITY           SKY/WX    TMP DP  RH WIND       PRES   REMARKS
BLOOMINGTON    MOSUNNY   85  64  49 W10       30.05F HX  86
6HR MIN TEMP:  64; 6HR MAX TEMP:  85;

CHAMPAIGN      MOSUNNY   88  54  31 W6        30.05S HX  86
6HR MIN TEMP:  66; 6HR MAX TEMP:  88;

DANVILLE       MOSUNNY   84  56  38 CALM      30.02F HX  83
6HR MIN TEMP:  64; 6HR MAX TEMP:  85;

DECATUR        MOSUNNY   84  60  44 SW5       30.04F HX  84
6HR MIN TEMP:  66; 6HR MAX TEMP:  85;

EFFINGHAM      SUNNY     84  62  48 SW3       30.07F HX  85
FLORA          MOSUNNY   86  62  43 NW6       30.06S HX  86
6HR MIN TEMP:  67; 6HR MAX TEMP:  86;

GALESBURG      MOSUNNY   82  55  38 S3        30.03F HX  82
JACKSONVILLE   PTSUNNY   86  59  40 W7        30.04F HX  85
6HR MIN TEMP:  68; 6HR MAX TEMP:  86;

LACON          CLOUDY    83  60  45 NW7       30.01F HX  83
6HR MIN TEMP:  65; 6HR MAX TEMP:  84;

LAWRENCEVILLE  MOSUNNY   85  57  38 N5        30.06S HX  84
6HR MIN TEMP:  67; 6HR MAX TEMP:  86;

LITCHFIELD     MOSUNNY   83  59  43 W3        30.05F HX  83
$$


CITY           SKY/WX    TMP DP  RH WIND       PRES   REMARKS
LINCOLN        MOSUNNY   86  63  45 NW3       30.03F HX  87
6HR MIN TEMP:  66; 6HR MAX TEMP:  87;

MACOMB         SUNNY     83  56  40 CALM      30.05F HX  82
MATTOON        PTSUNNY   83  55  38 CALM      30.04F HX  82
6HR MIN TEMP:  66; 6HR MAX TEMP:  84;

MT CARMEL AP   MOSUNNY   84  54  35 NW3       30.05F HX  83
6HR MIN TEMP:  64; 6HR MAX TEMP:  85;

OLNEY-NOBLE AP MOSUNNY   82  61  47 W6        30.06F HX  83
PARIS          MOSUNNY   84  58  40 CALM      30.05F HX  83
6HR MIN TEMP:  65; 6HR MAX TEMP:  85;

PEORIA         SUNNY     85  57  38 NW8       30.02F HX  84
6HR MIN TEMP:  65; 6HR MAX TEMP:  85;

PONTIAC        MOSUNNY   87  54  31 W8        30.02F HX  85
RANTOUL        NOT AVBL
ROBINSON       MOSUNNY   84  59  43 N8        30.06F HX  84
6HR MIN TEMP:  61; 6HR MAX TEMP:  84;

SPRINGFIELD    MOSUNNY   87  59  38 VRB5      30.04F HX  86
6HR MIN TEMP:  69; 6HR MAX TEMP:  88;

TAYLORVILLE    MOSUNNY   85  62  45 W6        30.04F HX  85
$$

...REGIONAL REPORTS...


CITY           SKY/WX    TMP DP  RH WIND       PRES   REMARKS
CHICAGO O`HARE MOSUNNY   84  60  44 NW12      30.00F HX  84
KANKAKEE       MOSUNNY   85  56  36 W7        30.02F HX  84
MOLINE         SUNNY     84  61  45 NW7       30.02F HX  84
MOUNT STERLING CLOUDY    82  65  55 SW3       30.04S HX  84
MOUNT VERNON   MOSUNNY   82  61  47 CALM      30.06F HX  83
PITTSFIELD     MOSUNNY   83  63  51 CALM      30.06S HX  84
QUINCY         CLOUDY    83  64  52 VRB3      30.04F HX  84
ROCKFORD       MOSUNNY   84  56  38 NW14      30.03F HX  83
$$


CITY           SKY/WX    TMP DP  RH WIND       PRES   REMARKS
BURLINGTON     SUNNY     81  60  48 SE3       30.03F HX  82
CEDAR RAPIDS   SUNNY     79  61  53 SE13      30.02F HX  80
DES MOINES     PTSUNNY   85  60  42 S10G18    29.98F HX  85
KIRKSVILLE     MOSUNNY   84  65  52 S6        30.03F HX  86
OTTUMWA        SUNNY     83  67  58 VRB3      30.01F HX  85
ST LOUIS       PTSUNNY   89  58  34 CALM      30.05F HX  88
$$


CITY           SKY/WX    TMP DP  RH WIND       PRES   REMARKS
TERRE HAUTE    SUNNY     83  54  36 CALM      30.06F HX  82
EVANSVILLE     SUNNY     85  58  39 N6        30.05F HX  84
INDIANAPOLIS   PTSUNNY   84  56  38 NW6       30.04F HX  83
LAFAYETTE      MOSUNNY   84  54  35 SW7       30.02F HX  83
MADISON        MOSUNNY   79  55  43 N6        30.02F
MILWAUKEE      PTSUNNY   74  60  61 E10       30.01F
$$






USA.gov is the U.S. government's official web portal to all federal, state and local government web resources and services.